Main Menu

Like Us on Facebook

Search

Login

Username:

Password:


Lost Password?

Register now!

Forecast for your location

Detailed conditions for your location

Current US satellite images

Current US radar image

Current US warnings and watches

Various US weather maps

The raw METAR code for this location is KSFO 062356Z 20008KT 10SM FEW009 BKN027 OVC058 14/12 A2986 RMK AO2 SLP110 60003 T01440122 10144 20122 58003

Decoded METAR for this location (may not be available)